Tracking 19570 objects as of 21-Feb-2019
HD Live streaming from Space Station
objects crossing your sky now

COSMOS 1823 DEB

Track COSMOS 1823 DEB now!
10-day predictions


NORAD ID: 39813
Int'l Code: 1987-020EM
Perigee: 1,458.1 km
Apogee: 1,507.5 km
Inclination: 73.6 °
Period: 115.4 minutes
Semi major axis: 7853 km
RCS: 0.0189 m2 (small)
Launch date: February 20, 1987
Source: Commonwealth of Independent States (former USSR) (CIS)
Launch site: PLESETSK MISSILE AND SPACE COMPLEX (PKMTR)

Note: This is SATELLITE DEBRIS
aabbcc
Your satellite tracking list
Your tracking list is empty




NASA's NSSDC Master Catalog

Two Line Element Set (TLE):
1 39813U 87020EM  19051.21968847  .00000104  00000-0  83047-3 0  9992
2 39813  73.6404 333.4479 0031466 323.4984 110.8665 12.47337632239128
Source of the keplerian elements: AFSPC